{"data":{"norad_id":57106,"epoch":"2026-09-20T16:24:38.439072Z","epoch_age_seconds":105079,"freshness":"FRESH","line1":"1 57106U 23090F   26263.68377823  .00000156  00000+0  15173-4 0  9998","line2":"2 57106  43.0007 260.3838 0000922 267.1749  92.8997 15.27576234180155","mean_motion":15.27576234,"eccentricity":9.22e-5,"inclination_deg":43.0007,"raan_deg":260.3838,"arg_perigee_deg":267.1749,"mean_anomaly_deg":92.8997,"bstar":1.5173e-5,"rev_number":18015,"period_min":94.266981113559,"perigee_km":482.42777042386,"apogee_km":483.69297521941,"semimajor_km":6861.1973728216,"source":"CELESTRAK","updated_at":"2026-09-21T09:00:33.558822Z"}}